Home   Weather   Edinburgh   Past weeks

Flag for United Kingdom Past Weather in Edinburgh, Scotland, United Kingdom — Yesterday and Last 2 Weeks

Now
48 °F

Light fog.


Feels Like: 48 °F
Forecast: 51 / 61 °F
Wind: 2 mph from Northeast

Location: Edinburgh Airport

Current Time: Jul 26, 2017 at 3:52:04 am

Latest Report: Jul 26, 2017 at 3:20 am


Visibility: 6 mi

Pressure: 29.74 "Hg

Humidity: 100%

Dew Point: 48 °F

Location of EdinburghLocation

Past Weather in Edinburgh — Graph

°F

Edinburgh Temperature Yesterday

Maximum temperature yesterday: 61 °F (at 11:20 am)
Minimum temperature yesterday: 48 °F (at 3:50 am)
Average temperature yesterday: 56 °F

High & Low Weather Summary for the Past Weeks

 TemperatureHumidityPressure
High77 °F (Jul 18, 5:50 pm)100% (Jul 12, 12:20 am)30.21 "Hg (Jul 12, 12:20 am)
Low43 °F (Jul 12, 2:20 am)46% (Jul 12, 6:50 pm)29.56 "Hg (Jul 19, 10:20 pm)
Average58 °F83%29.93 "Hg
* Reported Jul 11 2:20 am — Jul 26 2:20 am, Edinburgh. Weather by CustomWeather, © 2017

Note: Actual official high and low records may vary slightly from our data, if they occured in-between our weather recording intervals... More about our weather records

Advertising

Edinburgh Weather History for the Previous 24 Hours

Scroll right to see more
 ConditionsComfort  
Time TempWeatherWind HumidityBarometerVisibility
2:20 am
Wed, Jul 26
50 °FLight fog.2 mph100%29.77 "Hg5 mi
1:50 am54 °FPassing clouds.2 mph94%29.77 "Hg5 mi
1:20 am54 °FOvercast.2 mph100%29.80 "Hg5 mi
12:50 am55 °FOvercast.2 mph94%29.80 "Hg4 mi
12:20 am55 °FOvercast.1 mph94%29.83 "Hg4 mi
11:50 pm
Tue, Jul 25
54 °FOvercast.1 mph100%29.83 "Hg5 mi
11:20 pm54 °FOvercast.1 mph100%29.86 "Hg4 mi
10:50 pm52 °FFog.2 mph100%29.86 "Hg5 mi
10:20 pm54 °FFog.2 mph100%29.86 "Hg2 mi
9:50 pm54 °FFog.3 mph94%29.86 "Hg5 mi
9:20 pm55 °FPassing clouds.6 mph94%29.86 "HgN/A
8:50 pm57 °FSunny.7 mph94%29.89 "Hg10 mi
8:20 pm57 °FSunny.6 mph94%29.89 "Hg10 mi
7:50 pm59 °FPassing clouds.3 mph88%29.89 "HgN/A
7:20 pm59 °FPassing clouds.5 mph88%29.89 "HgN/A
6:50 pm59 °FPartly sunny.5 mph88%29.92 "HgN/A
6:20 pm59 °FPartly sunny.6 mph88%29.92 "HgN/A
5:50 pm59 °FPartly sunny.6 mph88%29.92 "HgN/A
5:20 pm57 °FPartly sunny.8 mph88%29.95 "HgN/A
4:50 pm59 °FScattered showers. Partly sunny.8 mph82%29.95 "HgN/A
4:20 pm59 °FPartly sunny.8 mph82%29.95 "HgN/A
3:50 pm59 °FPartly sunny.8 mph88%29.98 "HgN/A
3:20 pm59 °FPartly sunny.7 mph88%29.98 "HgN/A
2:50 pm59 °FPartly sunny.9 mph82%29.98 "HgN/A
2:20 pm57 °FPartly sunny.8 mph88%29.98 "HgN/A
1:50 pm57 °FPartly sunny.9 mph88%29.98 "HgN/A
1:20 pm57 °FPartly sunny.7 mph94%30.01 "HgN/A
12:50 pm59 °FPartly sunny.7 mph88%30.01 "HgN/A
12:20 pm59 °FPartly sunny.7 mph88%30.01 "HgN/A
11:50 am59 °FPartly sunny.8 mph88%30.01 "HgN/A
11:20 am61 °FPartly sunny.8 mph83%30.01 "HgN/A
10:50 am59 °FPartly sunny.7 mph88%30.01 "HgN/A
10:20 am59 °FPartly sunny.7 mph88%30.01 "HgN/A
9:50 am59 °FPartly sunny.7 mph82%30.04 "HgN/A
9:20 am59 °FPartly sunny.6 mph88%30.04 "HgN/A
8:50 am59 °FPartly sunny.2 mph82%30.04 "HgN/A
8:20 am57 °FPartly sunny.3 mph88%30.04 "HgN/A
7:50 am55 °FPartly sunny.3 mph94%30.04 "HgN/A
7:20 am55 °FPartly sunny.5 mph88%30.04 "HgN/A
6:50 am55 °FPartly sunny.3 mph94%30.04 "HgN/A
6:20 am54 °FOvercast.1 mph100%30.07 "HgN/A
5:50 am52 °FOvercast.1 mph100%30.07 "HgN/A
5:20 am52 °FPartly sunny.No wind94%30.07 "HgN/A
4:50 am50 °FPassing clouds.3 mph100%30.07 "HgN/A
4:20 am48 °FPassing clouds.1 mph100%30.07 "HgN/A
3:50 am48 °FPassing clouds.3 mph94%30.07 "HgN/A
3:20 am50 °FPassing clouds.3 mph100%30.07 "HgN/A
Weather by CustomWeather, © 2017

See weather overviewHow to use our weather pages